Página principal
METAR-TAF:

METAR-TAF

Aeroportos :

Flores, Açores, Portugal

Aeroporto das Flores

latitude: 39-27N, longitude: 031-08W, altura: 28 m

Observação actual do tempo

O boletim foi feito há 6 horas e 15 minutos, às 18:00 UTC
Vento 9 kt de su-sudoeste com rajadas de 21 kt, variando entre sudeste e oeste
Temperatura 21°C
Humidade 78%
Pressão 1020 hPa
Visibilidade 10 km ou mais
Nuvens dispersasa uma altura de 1400 ft

METAR: LPFL 121800Z 20009G21KT 140V260 9999 SCT014 21/17 Q1020

Hora: 23:15 (00:15 UTC)


TAF: em falta

Observações e previsões do tempo de mais de 4000 aeroportos (mensagens METAR e TAF).

As estações disponíveis são os pontos amarelos e vermelhos sobre o mapa.

Mova o rato sobre o mapa para ver o nome da estação.

Depois clique no ponto para visualizar as observações e previsões meteorológicas.

Para alterar o mapa : clique nos botões verdes com uma cruz preta para aumentar o zoom; no botão verde com uma pitada de zoom; ou nas setas verdes para mapas adjacentes.


METAR-TAF: